SCP
0 0 0 0 0 0 0 0 0 0 0 0 0 0 0 0 0 0 0 0 0 0 0 0 1 1 0 -0 1 1 1 1 1 1 0 0 0 0 0 0 0 0 0
0 0 0 0 0 0 0 0 0 0 0 0 0 0 0 0 0 0 0 0 0 0 0 0 0 1 1 2 1 1 1 1 0 0 0 0 0 0 0 0 0 0 0
0 0 0 0 0 0 0 0 0 0 0 0 0 0 0 0 0 0 0 0 0 0 0 0 0 0 0 1 1 1 2 1 0 0 0 0 0 0 0 0 0 0 0
0 0 0 0 0 0 0 0 0 0 0 0 0 0 0 0 0 0 0 0 0 0 0 0 0 0 0 0 1 1 1 0 0 0 0 0 0 0 0 0 0 0 0
0 0 0 0 0 0 0 0 0 0 0 0 0 0 0 0 0 0 0 0 0 -0 -0 0 0 0 0 0 0 1 1 0 0 0 0 0 0 0 0 0 0 0 0
0 0 0 0 0 0 0 0 0 0 0 0 0 0 0 0 0 0 0 0 0 -0 -0 -0 0 0 0 0 0 0 0 0 0 0 0 0 0 0 0 0 0 0 0
0 0 0 0 0 0 0 0 0 0 0 0 0 0 0 0 0 0 0 0 0 0 -0 -0 -0 0 0 0 0 0 0 0 0 0 0 0 0 0 0 0 0 0 0
0 0 0 0 0 0 0 0 0 0 0 0 0 0 0 0 0 0 0 0 0 0 0 -0 -0 -0 0 0 0 0 0 0 0 0 0 0 0 0 0 0 0 0 0
0 0 0 0 0 0 0 0 0 0 0 0 0 0 0 0 0 0 0 0 0 0 0 0 -0 0 0 0 0 0 0 0 0 0 0 0 0 0 0 0 0 0 0
0 0 0 0 0 0 0 0 0 0 0 0 0 0 0 0 0 0 0 0 0 0 0 0 -0 0 0 0 0 0 0 0 0 0 0 0 0 0 0 0 0 0 0
0 0 0 0 0 0 0 0 0 0 0 0 0 0 0 0 0 0 0 0 0 0 0 0 0 0 0 0 0 0 0 0 0 0 0 0 0 0 0 0 0 0 0
0 0 0 0 0 0 0 0 0 0 0 0 0 0 0 0 0 0 0 0 0 0 0 0 0 0 0 0 0 0 0 0 0 0 0 0 0 0 0 0 0 0 0
0 0 0 0 0 0 0 0 0 0 0 0 0 0 0 0 0 0 0 0 0 0 0 0 0 0 0 0 0 0 0 0 0 0 0 0 0 0 0 0 0 0 0
0 0 0 0 0 0 0 0 0 0 0 0 0 0 0 0 0 0 0 0 0 0 0 0 0 0 0 0 0 0 0 0 0 0 0 0 0 0 0 0 0 0 0
0 0 0 0 0 0 0 0 0 0 0 0 0 0 0 0 0 0 0 0 0 0 0 0 0 0 0 0 0 0 0 0 0 0 0 0 0 0 0 0 0 0 0
-0 0 0 0 0 0 0 0 0 0 0 0 0 0 0 0 0 0 0 0 0 0 0 0 0 0 0 0 0 0 0 0 0 0 0 0 0 0 0 0 0 0 0
-0 -0 0 0 0 0 0 0 0 0 -0 0 -0 0 0 -0 0 0 0 0 0 0 0 0 0 0 0 0 0 0 0 0 0 0 0 0 0 0 0 0 0 0 0
-0 -0 0 0 0 -0 -0 -0 -0 0 0 0 0 0 0 0 0 0 0 0 0 -0 0 0 0 0 0 0 0 0 0 0 0 0 0 0 0 0 0 0 0 0 0
-0 -0 0 0 0 0 0 0 0 0 0 -0 -0 -0 -0 0 0 -0 -0 0 0 0 0 0 0 0 0 0 0 0 0 0 0 0 0 0 0 0 0 0 0 0 0
-0 -0 0 0 0 0 0 0 0 0 0 0 0 0 -0 0 0 0 0 0 0 0 0 0 0 0 0 0 0 0 0 0 0 0 0 0 0 0 0 0 0 0 0
0 0 0 0 0 0 0 0 0 0 0 -0 -0 0 0 0 0 0 0 0 0 0 0 0 0 0 0 0 0 0 0 0 0 0 0 0 0 0 0 0 0 0 0
0 0 0 0 0 0 0 0 0 0 0 0 0 0 0 0 0 0 0 0 0 0 0 0 0 0 0 0 0 0 0 0 0 0 0 0 0 0 0 0 0 0 0
0 0 0 0 0 0 0 0 0 0 0 0 0 0 0 0 0 0 0 0 0 0 0 0 0 0 0 0 0 0 0 0 0 0 0 0 0 0 0 0 0 0 0
0 0 0 0 0 0 0 0 0 0 0 0 0 0 0 0 0 0 0 0 0 0 0 0 0 0 0 0 0 0 0 0 0 0 0 0 0 0 0 0 0 0 0
0 0 0 0 0 0 0 0 0 0 0 0 0 0 0 0 0 0 0 0 0 0 0 0 0 0 0 0 0 0 0 0 0 0 0 0 0 0 0 0 0 0 0
0 0 0 0 0 0 0 0 0 0 0 0 0 0 0 0 0 0 0 0 0 0 0 0 0 0 0 0 0 0 0 0 0 0 0 0 0 0 0 0 0 0 0
Wind_Speed_500mb
41 44 46 49 46 40 39 36 32 24 22 23 24 24 21 31 41 46 49 51 51 53 54 59 57 52 62 83 86 79 77 72 81 83 77 59 41 42 40 45 41 39 37
61 58 58 56 55 51 49 44 37 35 31 28 28 27 26 26 29 38 44 46 49 54 53 51 57 57 58 67 70 75 79 70 73 84 74 59 47 44 41 42 39 39 37
73 75 75 64 64 61 57 52 48 45 46 43 41 40 40 39 40 45 46 47 45 47 48 49 49 51 51 59 68 69 75 71 70 77 71 55 53 47 45 42 40 39 38
51 62 76 76 70 70 63 59 56 54 54 56 52 50 49 48 49 51 55 56 51 46 46 50 54 55 57 50 61 66 71 75 69 72 56 55 55 45 48 41 42 39 37
43 48 62 72 79 80 77 68 65 64 63 63 60 56 56 55 55 56 62 68 67 65 61 60 64 62 61 57 63 59 70 66 66 55 46 57 58 53 52 42 41 38 33
27 31 35 36 44 67 81 79 79 82 79 71 65 64 64 63 64 66 65 72 79 79 75 74 70 68 66 65 59 54 60 62 56 43 42 77 65 50 47 38 40 39 33
44 45 48 51 54 55 59 62 67 68 68 70 67 67 68 69 68 71 77 82 92 93 90 89 83 75 71 62 57 53 43 42 44 39 64 87 61 47 39 39 42 35 32
60 60 63 60 61 64 71 72 70 71 72 72 71 69 70 72 73 80 86 93 99 101 96 97 89 78 74 60 51 50 41 37 41 53 71 64 47 33 32 33 25 25 28
67 70 72 73 75 73 76 84 82 84 80 78 77 77 80 86 87 87 88 97 97 96 95 87 84 76 72 57 49 50 57 46 45 61 48 42 32 34 32 35 36 33 35
87 82 77 70 65 67 74 83 84 82 80 77 81 83 87 95 98 99 91 86 88 83 90 92 78 67 66 54 51 51 58 53 56 49 47 43 41 37 34 35 34 35 33
99 100 102 102 98 91 85 82 80 84 87 94 98 98 101 103 103 97 89 82 83 82 87 82 66 59 55 49 48 51 50 49 47 51 51 46 42 38 36 37 32 27 27
93 92 92 94 94 93 94 101 104 105 108 112 108 109 103 98 96 93 84 78 71 76 80 72 64 57 43 42 42 42 52 44 47 54 54 47 42 39 37 32 28 26 25
74 81 87 87 87 88 84 85 85 85 90 92 88 87 94 94 89 85 81 74 67 74 77 72 64 55 41 38 38 55 54 43 58 57 52 47 39 34 33 32 31 29 26
79 82 82 83 88 94 91 91 89 93 98 93 89 86 82 77 78 77 67 65 69 70 69 67 62 45 36 40 60 47 47 49 58 52 49 42 38 36 31 26 22 25 25
79 79 80 85 88 90 90 94 97 101 103 98 97 90 82 81 79 80 72 63 58 62 54 55 51 45 42 45 63 64 55 55 53 50 47 45 40 32 30 25 21 22 23
77 80 82 84 84 85 87 94 99 105 107 108 106 99 81 85 86 80 75 60 52 41 42 49 52 49 44 65 74 75 56 56 57 51 45 46 40 36 33 30 24 24 21
75 79 83 85 83 84 85 89 94 103 107 109 112 103 89 68 72 66 62 53 42 46 60 58 58 64 71 74 70 65 70 61 57 51 45 40 37 30 33 26 24 27 24
69 73 76 82 83 87 86 84 74 75 73 69 81 93 72 70 68 56 49 52 60 51 64 77 67 82 86 72 78 83 70 63 56 48 42 38 34 31 29 23 20 19 23
61 66 69 76 79 73 55 28 12 19 36 46 52 64 58 58 58 54 51 58 40 73 76 87 91 85 79 72 78 75 64 57 53 50 39 35 32 31 26 21 20 23 22
68 64 52 38 14 8 11 2 12 19 31 44 48 49 52 49 50 52 41 50 69 81 87 94 78 68 65 67 61 57 55 53 53 48 36 33 34 26 22 23 21 21 25
52 41 16 12 15 20 14 16 21 25 27 30 32 32 34 42 58 61 69 75 72 72 66 61 57 61 59 58 56 50 51 54 50 40 37 35 32 30 25 22 20 21 23
33 18 26 35 34 39 36 40 47 62 57 51 59 61 68 84 75 72 62 59 47 60 64 61 56 50 47 47 50 51 49 47 41 38 37 37 30 28 22 23 21 25 23
27 36 45 39 44 43 60 58 67 82 75 75 72 70 70 70 60 53 58 62 65 63 60 55 52 49 46 48 48 46 42 38 38 37 39 37 33 26 19 21 21 23 24
34 43 54 53 40 54 60 61 65 67 69 69 76 72 73 68 69 70 70 67 63 60 56 54 52 51 48 44 40 35 35 36 35 35 33 34 35 28 23 23 22 20 20
49 49 52 56 62 67 68 65 73 74 77 72 74 74 75 74 72 68 63 60 57 56 53 49 44 43 38 35 34 30 28 30 32 29 33 31 29 24 23 20 18 16 14
48 46 50 62 67 81 73 76 78 72 69 70 68 66 66 67 67 66 61 55 49 47 47 42 36 33 32 32 30 29 32 34 30 29 32 30 30 27 26 25 15 13 11
Wind_Direction_500mb
232 236 238 239 239 240 243 247 256 260 267 271 276 285 303 293 281 280 279 277 275 276 274 269 262 255 256 261 271 276 277 275 269 269 270 261 256 236 236 237 242 247 262
241 241 240 243 240 240 242 246 255 255 258 267 271 279 292 299 303 307 302 293 288 284 278 274 269 267 271 269 272 274 274 274 274 271 271 256 250 232 235 233 236 246 260
249 250 246 244 241 242 243 246 249 253 255 259 265 272 279 285 295 301 309 303 304 295 285 277 277 275 276 275 273 271 276 271 279 271 265 258 241 229 230 226 236 250 260
253 250 250 244 243 244 245 248 250 254 257 257 261 264 269 278 289 294 305 305 305 307 304 289 281 276 275 277 276 275 275 276 280 271 242 255 240 231 225 229 238 250 258
279 260 254 253 246 244 244 247 250 252 255 257 259 264 272 279 284 293 299 302 304 306 305 303 285 280 275 271 277 280 273 277 274 246 241 248 233 226 225 230 242 250 254
265 267 268 269 263 252 246 247 250 253 252 251 254 263 271 276 283 289 294 296 298 299 299 296 299 293 282 271 271 277 275 270 267 217 242 247 235 227 225 230 237 237 239
280 272 269 267 264 261 256 251 250 250 254 256 257 264 270 276 281 285 287 291 292 291 290 293 295 294 289 283 279 285 275 257 219 252 232 238 231 226 225 229 237 244 249
275 274 273 269 264 258 262 259 256 258 257 260 261 262 266 270 276 281 283 291 290 287 286 286 288 290 287 283 285 293 240 222 210 217 241 241 235 233 228 241 254 238 221
282 278 276 275 271 265 257 259 262 259 256 252 255 259 265 272 278 282 284 286 282 280 281 282 283 282 279 278 277 276 244 217 223 248 222 230 227 220 223 223 212 213 210
279 275 272 270 270 267 262 260 258 250 251 254 258 263 270 275 281 284 280 276 273 273 277 279 279 274 276 271 264 260 239 218 217 235 218 207 215 218 220 223 223 222 218
280 278 275 272 270 266 264 262 259 259 260 262 265 268 271 274 276 275 270 267 267 271 272 273 273 270 275 263 253 251 228 202 227 233 209 210 213 216 213 212 211 225 222
280 277 274 272 271 269 267 267 266 266 265 266 268 271 270 269 268 266 262 263 266 261 263 268 269 271 268 258 246 227 199 197 219 220 208 210 213 209 202 202 206 218 218
274 271 273 273 271 269 265 262 259 255 252 252 252 254 257 258 259 259 262 261 259 256 260 261 263 272 259 244 244 208 204 218 216 200 202 208 203 195 192 199 209 217 216
274 273 272 271 269 270 267 258 253 250 247 246 244 242 239 244 251 258 253 250 249 254 254 255 257 252 250 251 221 206 214 219 209 204 203 196 189 192 195 206 219 221 219
283 280 276 274 271 270 267 265 260 256 251 243 238 235 237 247 243 248 254 250 248 260 256 250 240 233 224 213 190 196 222 206 198 201 194 189 186 184 191 207 212 211 212
281 280 280 279 277 271 267 265 263 262 255 248 245 239 241 242 250 249 250 249 255 251 249 241 221 211 199 179 191 192 217 194 192 188 182 181 181 185 199 206 211 219 221
286 286 286 283 279 275 270 264 263 264 258 248 243 241 240 230 231 245 243 244 233 246 249 223 203 189 183 182 194 207 193 189 187 183 183 185 188 197 201 204 218 218 223
285 285 286 288 290 287 282 278 273 261 231 234 229 235 234 224 231 237 233 233 249 234 203 186 195 182 173 177 208 205 191 185 183 181 184 188 193 195 189 197 211 216 208
296 294 293 293 290 286 288 272 268 184 187 190 203 217 209 210 221 223 232 235 236 187 180 174 167 165 173 192 200 191 185 183 180 181 184 191 190 186 195 202 208 200 198
303 311 316 315 326 275 246 94 132 150 165 183 194 201 201 212 217 233 213 187 172 174 175 169 168 173 180 179 184 182 178 183 181 181 185 185 184 184 201 202 205 205 205
318 336 9 83 124 99 94 127 140 145 149 162 171 185 180 174 149 150 147 157 162 167 171 169 162 162 158 167 174 172 175 177 180 183 186 180 181 186 192 185 192 207 210
343 29 77 97 125 121 123 123 117 125 137 132 125 130 137 141 144 149 156 160 155 151 143 141 138 145 154 165 170 172 173 174 176 182 181 181 185 192 191 196 207 209 210
64 91 101 118 125 128 123 125 116 121 129 128 135 136 141 146 148 148 147 140 136 135 134 135 140 144 155 161 167 172 174 176 179 181 186 188 191 191 198 198 201 207 211
83 107 127 130 139 134 126 124 126 122 123 133 129 132 134 134 134 131 130 132 133 133 135 139 141 144 148 155 162 166 169 173 179 183 193 196 188 191 193 197 201 194 196
117 132 128 130 133 134 132 131 133 127 118 121 119 122 125 126 127 128 130 133 135 136 137 139 139 141 141 146 151 155 166 174 181 186 185 191 185 191 190 188 189 194 191
144 139 136 134 131 130 127 123 118 122 123 124 124 125 126 127 128 130 131 133 133 137 140 140 140 145 155 160 167 171 169 173 180 184 187 192 192 195 195 194 196 189 189
Wind_Speed_850mb
41 44 46 49 46 40 39 36 32 24 22 23 24 24 21 31 41 46 49 51 51 53 54 59 57 52 62 83 86 79 77 72 81 83 77 59 41 42 40 45 41 39 37
61 58 58 56 55 51 49 44 37 35 31 28 28 27 26 26 29 38 44 46 49 54 53 51 57 57 58 67 70 75 79 70 73 84 74 59 47 44 41 42 39 39 37
73 75 75 64 64 61 57 52 48 45 46 43 41 40 40 39 40 45 46 47 45 47 48 49 49 51 51 59 68 69 75 71 70 77 71 55 53 47 45 42 40 39 38
51 62 76 76 70 70 63 59 56 54 54 56 52 50 49 48 49 51 55 56 51 46 46 50 54 55 57 50 61 66 71 75 69 72 56 55 55 45 48 41 42 39 37
43 48 62 72 79 80 77 68 65 64 63 63 60 56 56 55 55 56 62 68 67 65 61 60 64 62 61 57 63 59 70 66 66 55 46 57 58 53 52 42 41 38 33
27 31 35 36 44 67 81 79 79 82 79 71 65 64 64 63 64 66 65 72 79 79 75 74 70 68 66 65 59 54 60 62 56 43 42 77 65 50 47 38 40 39 33
44 45 48 51 54 55 59 62 67 68 68 70 67 67 68 69 68 71 77 82 92 93 90 89 83 75 71 62 57 53 43 42 44 39 64 87 61 47 39 39 42 35 32
60 60 63 60 61 64 71 72 70 71 72 72 71 69 70 72 73 80 86 93 99 101 96 97 89 78 74 60 51 50 41 37 41 53 71 64 47 33 32 33 25 25 28
67 70 72 73 75 73 76 84 82 84 80 78 77 77 80 86 87 87 88 97 97 96 95 87 84 76 72 57 49 50 57 46 45 61 48 42 32 34 32 35 36 33 35
87 82 77 70 65 67 74 83 84 82 80 77 81 83 87 95 98 99 91 86 88 83 90 92 78 67 66 54 51 51 58 53 56 49 47 43 41 37 34 35 34 35 33
99 100 102 102 98 91 85 82 80 84 87 94 98 98 101 103 103 97 89 82 83 82 87 82 66 59 55 49 48 51 50 49 47 51 51 46 42 38 36 37 32 27 27
93 92 92 94 94 93 94 101 104 105 108 112 108 109 103 98 96 93 84 78 71 76 80 72 64 57 43 42 42 42 52 44 47 54 54 47 42 39 37 32 28 26 25
74 81 87 87 87 88 84 85 85 85 90 92 88 87 94 94 89 85 81 74 67 74 77 72 64 55 41 38 38 55 54 43 58 57 52 47 39 34 33 32 31 29 26
79 82 82 83 88 94 91 91 89 93 98 93 89 86 82 77 78 77 67 65 69 70 69 67 62 45 36 40 60 47 47 49 58 52 49 42 38 36 31 26 22 25 25
79 79 80 85 88 90 90 94 97 101 103 98 97 90 82 81 79 80 72 63 58 62 54 55 51 45 42 45 63 64 55 55 53 50 47 45 40 32 30 25 21 22 23
77 80 82 84 84 85 87 94 99 105 107 108 106 99 81 85 86 80 75 60 52 41 42 49 52 49 44 65 74 75 56 56 57 51 45 46 40 36 33 30 24 24 21
75 79 83 85 83 84 85 89 94 103 107 109 112 103 89 68 72 66 62 53 42 46 60 58 58 64 71 74 70 65 70 61 57 51 45 40 37 30 33 26 24 27 24
69 73 76 82 83 87 86 84 74 75 73 69 81 93 72 70 68 56 49 52 60 51 64 77 67 82 86 72 78 83 70 63 56 48 42 38 34 31 29 23 20 19 23
61 66 69 76 79 73 55 28 12 19 36 46 52 64 58 58 58 54 51 58 40 73 76 87 91 85 79 72 78 75 64 57 53 50 39 35 32 31 26 21 20 23 22
68 64 52 38 14 8 11 2 12 19 31 44 48 49 52 49 50 52 41 50 69 81 87 94 78 68 65 67 61 57 55 53 53 48 36 33 34 26 22 23 21 21 25
52 41 16 12 15 20 14 16 21 25 27 30 32 32 34 42 58 61 69 75 72 72 66 61 57 61 59 58 56 50 51 54 50 40 37 35 32 30 25 22 20 21 23
33 18 26 35 34 39 36 40 47 62 57 51 59 61 68 84 75 72 62 59 47 60 64 61 56 50 47 47 50 51 49 47 41 38 37 37 30 28 22 23 21 25 23
27 36 45 39 44 43 60 58 67 82 75 75 72 70 70 70 60 53 58 62 65 63 60 55 52 49 46 48 48 46 42 38 38 37 39 37 33 26 19 21 21 23 24
34 43 54 53 40 54 60 61 65 67 69 69 76 72 73 68 69 70 70 67 63 60 56 54 52 51 48 44 40 35 35 36 35 35 33 34 35 28 23 23 22 20 20
49 49 52 56 62 67 68 65 73 74 77 72 74 74 75 74 72 68 63 60 57 56 53 49 44 43 38 35 34 30 28 30 32 29 33 31 29 24 23 20 18 16 14
48 46 50 62 67 81 73 76 78 72 69 70 68 66 66 67 67 66 61 55 49 47 47 42 36 33 32 32 30 29 32 34 30 29 32 30 30 27 26 25 15 13 11
Wind_Direction_850mb
232 236 238 239 239 240 243 247 256 260 267 271 276 285 303 293 281 280 279 277 275 276 274 269 262 255 256 261 271 276 277 275 269 269 270 261 256 236 236 237 242 247 262
241 241 240 243 240 240 242 246 255 255 258 267 271 279 292 299 303 307 302 293 288 284 278 274 269 267 271 269 272 274 274 274 274 271 271 256 250 232 235 233 236 246 260
249 250 246 244 241 242 243 246 249 253 255 259 265 272 279 285 295 301 309 303 304 295 285 277 277 275 276 275 273 271 276 271 279 271 265 258 241 229 230 226 236 250 260
253 250 250 244 243 244 245 248 250 254 257 257 261 264 269 278 289 294 305 305 305 307 304 289 281 276 275 277 276 275 275 276 280 271 242 255 240 231 225 229 238 250 258
279 260 254 253 246 244 244 247 250 252 255 257 259 264 272 279 284 293 299 302 304 306 305 303 285 280 275 271 277 280 273 277 274 246 241 248 233 226 225 230 242 250 254
265 267 268 269 263 252 246 247 250 253 252 251 254 263 271 276 283 289 294 296 298 299 299 296 299 293 282 271 271 277 275 270 267 217 242 247 235 227 225 230 237 237 239
280 272 269 267 264 261 256 251 250 250 254 256 257 264 270 276 281 285 287 291 292 291 290 293 295 294 289 283 279 285 275 257 219 252 232 238 231 226 225 229 237 244 249
275 274 273 269 264 258 262 259 256 258 257 260 261 262 266 270 276 281 283 291 290 287 286 286 288 290 287 283 285 293 240 222 210 217 241 241 235 233 228 241 254 238 221
282 278 276 275 271 265 257 259 262 259 256 252 255 259 265 272 278 282 284 286 282 280 281 282 283 282 279 278 277 276 244 217 223 248 222 230 227 220 223 223 212 213 210
279 275 272 270 270 267 262 260 258 250 251 254 258 263 270 275 281 284 280 276 273 273 277 279 279 274 276 271 264 260 239 218 217 235 218 207 215 218 220 223 223 222 218
280 278 275 272 270 266 264 262 259 259 260 262 265 268 271 274 276 275 270 267 267 271 272 273 273 270 275 263 253 251 228 202 227 233 209 210 213 216 213 212 211 225 222
280 277 274 272 271 269 267 267 266 266 265 266 268 271 270 269 268 266 262 263 266 261 263 268 269 271 268 258 246 227 199 197 219 220 208 210 213 209 202 202 206 218 218
274 271 273 273 271 269 265 262 259 255 252 252 252 254 257 258 259 259 262 261 259 256 260 261 263 272 259 244 244 208 204 218 216 200 202 208 203 195 192 199 209 217 216
274 273 272 271 269 270 267 258 253 250 247 246 244 242 239 244 251 258 253 250 249 254 254 255 257 252 250 251 221 206 214 219 209 204 203 196 189 192 195 206 219 221 219
283 280 276 274 271 270 267 265 260 256 251 243 238 235 237 247 243 248 254 250 248 260 256 250 240 233 224 213 190 196 222 206 198 201 194 189 186 184 191 207 212 211 212
281 280 280 279 277 271 267 265 263 262 255 248 245 239 241 242 250 249 250 249 255 251 249 241 221 211 199 179 191 192 217 194 192 188 182 181 181 185 199 206 211 219 221
286 286 286 283 279 275 270 264 263 264 258 248 243 241 240 230 231 245 243 244 233 246 249 223 203 189 183 182 194 207 193 189 187 183 183 185 188 197 201 204 218 218 223
285 285 286 288 290 287 282 278 273 261 231 234 229 235 234 224 231 237 233 233 249 234 203 186 195 182 173 177 208 205 191 185 183 181 184 188 193 195 189 197 211 216 208
296 294 293 293 290 286 288 272 268 184 187 190 203 217 209 210 221 223 232 235 236 187 180 174 167 165 173 192 200 191 185 183 180 181 184 191 190 186 195 202 208 200 198
303 311 316 315 326 275 246 94 132 150 165 183 194 201 201 212 217 233 213 187 172 174 175 169 168 173 180 179 184 182 178 183 181 181 185 185 184 184 201 202 205 205 205
318 336 9 83 124 99 94 127 140 145 149 162 171 185 180 174 149 150 147 157 162 167 171 169 162 162 158 167 174 172 175 177 180 183 186 180 181 186 192 185 192 207 210
343 29 77 97 125 121 123 123 117 125 137 132 125 130 137 141 144 149 156 160 155 151 143 141 138 145 154 165 170 172 173 174 176 182 181 181 185 192 191 196 207 209 210
64 91 101 118 125 128 123 125 116 121 129 128 135 136 141 146 148 148 147 140 136 135 134 135 140 144 155 161 167 172 174 176 179 181 186 188 191 191 198 198 201 207 211
83 107 127 130 139 134 126 124 126 122 123 133 129 132 134 134 134 131 130 132 133 133 135 139 141 144 148 155 162 166 169 173 179 183 193 196 188 191 193 197 201 194 196
117 132 128 130 133 134 132 131 133 127 118 121 119 122 125 126 127 128 130 133 135 136 137 139 139 141 141 146 151 155 166 174 181 186 185 191 185 191 190 188 189 194 191
144 139 136 134 131 130 127 123 118 122 123 124 124 125 126 127 128 130 131 133 133 137 140 140 140 145 155 160 167 171 169 173 180 184 187 192 192 195 195 194 196 189 189